| time (UTC) | temp F | wind direction | speed knots | gust knots | rain 1hr in | rain 24hr in | rain mn in | humidity % | barometer mb |
| 20260906145306 | 71 | 213 | 1.7 | 2.6 | 0.00 | 0.00 | 0.00 | 100 | 1017.9 |
| 20260906144804 | 71 | 307 | 1.7 | 4.3 | 0.00 | 0.00 | 0.00 | 100 | 1017.9 |
| 20260906144303 | 71 | 0 | 3.5 | 8.7 | 0.00 | 0.00 | 0.00 | 100 | 1017.8 |
| 20260906143803 | 71 | 0 | 4.3 | 8.7 | 0.00 | 0.00 | 0.00 | 100 | 1017.6 |
| 20260906143303 | 71 | 0 | 1.7 | 4.3 | 0.00 | 0.00 | 0.00 | 100 | 1017.7 |
| 20260906142803 | 70 | 206 | 1.7 | 2.6 | 0.00 | 0.00 | 0.00 | 100 | 1017.6 |
| 20260906142306 | 70 | 130 | 4.3 | 8.7 | 0.00 | 0.00 | 0.00 | 100 | 1017.6 |
| 20260906141803 | 70 | 130 | 2.6 | 7.0 | 0.00 | 0.00 | 0.00 | 100 | 1017.6 |
| 20260906141304 | 70 | 155 | 2.6 | 7.8 | 0.00 | 0.00 | 0.00 | 100 | 1017.7 |
| 20260906140803 | 70 | 154 | 2.6 | 6.1 | 0.00 | 0.00 | 0.00 | 100 | 1017.6 |
| 20260906140303 | 69 | 140 | 1.7 | 7.8 | 0.00 | 0.00 | 0.00 | 100 | 1017.6 |
| 20260906135803 | 69 | 154 | 5.2 | 8.7 | 0.00 | 0.00 | 0.00 | 100 | 1017.6 |
| 20260906135306 | 69 | 147 | 2.6 | 7.0 | 0.00 | 0.00 | 0.00 | 100 | 1017.6 |
| 20260906134804 | 69 | 129 | 5.2 | 10.4 | 0.00 | 0.00 | 0.00 | 100 | 1017.4 |
| 20260906134303 | 69 | 146 | 4.3 | 10.4 | 0.00 | 0.00 | 0.00 | 100 | 1017.4 |
| 20260906133303 | 69 | 119 | 3.5 | 8.7 | 0.00 | 0.00 | 0.00 | 100 | 1017.4 |
| 20260906132803 | 68 | 130 | 3.5 | 10.4 | 0.00 | 0.00 | 0.00 | 100 | 1017.4 |
| 20260906132306 | 68 | 126 | 6.1 | 14.8 | 0.00 | 0.00 | 0.00 | 100 | 1017.3 |
| 20260906131802 | 68 | 118 | 5.2 | 8.7 | 0.00 | 0.00 | 0.00 | 100 | 1017.3 |
| 20260906130804 | 68 | 92 | 1.7 | 5.2 | 0.00 | 0.00 | 0.00 | 100 | 1017.2 |
| 20260906125803 | 68 | 124 | 2.6 | 7.8 | 0.00 | 0.00 | 0.00 | 100 | 1017.1 |
| 20260906125306 | 68 | 99 | 3.5 | 7.8 | 0.00 | 0.00 | 0.00 | 100 | 1017.1 |
| 20260906124803 | 68 | 116 | 1.7 | 4.3 | 0.00 | 0.00 | 0.00 | 100 | 1017.1 |
| 20260906124303 | 68 | 124 | 2.6 | 6.1 | 0.00 | 0.00 | 0.00 | 100 | 1017.2 |
| 20260906123803 | 68 | 106 | 1.7 | 4.3 | 0.00 | 0.00 | 0.00 | 100 | 1017.2 |
| 20260906123303 | 68 | 132 | 1.7 | 4.3 | 0.00 | 0.00 | 0.00 | 100 | 1017.0 |
| 20260906122803 | 68 | 88 | 1.7 | 5.2 | 0.00 | 0.00 | 0.00 | 100 | 1016.9 |
| 20260906122306 | 68 | 125 | 1.7 | 5.2 | 0.00 | 0.00 | 0.00 | 100 | 1017.0 |
| 20260906121303 | 67 | 114 | 1.7 | 2.6 | 0.00 | 0.00 | 0.00 | 100 | 1016.9 |
| 20260906120804 | 67 | 91 | 1.7 | 5.2 | 0.00 | 0.00 | 0.00 | 100 | 1016.9 |
| 20260906120303 | 67 | 78 | 0.9 | 2.6 | 0.00 | 0.00 | 0.00 | 100 | 1016.9 |
| 20260906115803 | 67 | 98 | 0.9 | 2.6 | 0.00 | 0.00 | 0.00 | 100 | 1016.8 |
| 20260906115306 | 67 | 75 | 1.7 | 4.3 | 0.00 | 0.00 | 0.00 | 100 | 1016.8 |
| 20260906114803 | 67 | 111 | 0.9 | 1.7 | 0.00 | 0.00 | 0.00 | 100 | 1016.8 |
| 20260906114303 | 66 | 112 | 0.0 | 1.7 | 0.00 | 0.00 | 0.00 | 100 | 1016.7 |
| 20260906112803 | 66 | 113 | 0.9 | 2.6 | 0.00 | 0.00 | 0.00 | 100 | 1016.7 |
| 20260906112306 | 66 | 112 | 0.0 | 2.6 | 0.00 | 0.00 | 0.00 | 100 | 1016.8 |
| 20260906111803 | 66 | 74 | 0.9 | 0.9 | 0.00 | 0.00 | 0.00 | 100 | 1016.7 |
| 20260906111304 | 66 | 74 | 0.0 | 0.0 | 0.00 | 0.00 | 0.00 | 100 | 1016.7 |
| 20260906110803 | 66 | 75 | 0.0 | 0.0 | 0.00 | 0.00 | 0.00 | 100 | 1016.7 |
| 20260906110304 | 66 | 72 | 0.0 | 0.0 | 0.00 | 0.00 | 0.00 | 100 | 1016.7 |
| 20260906105803 | 66 | 86 | 0.0 | 0.0 | 0.00 | 0.00 | 0.00 | 100 | 1016.6 |
| 20260906105306 | 66 | 86 | 0.0 | 0.9 | 0.00 | 0.00 | 0.00 | 100 | 1016.5 |
| 20260906104303 | 66 | 87 | 0.9 | 1.7 | 0.00 | 0.00 | 0.00 | 100 | 1016.4 |
| 20260906103803 | 66 | 87 | 0.0 | 0.0 | 0.00 | 0.00 | 0.00 | 100 | 1016.3 |
| 20260906102803 | 67 | 87 | 0.9 | 2.6 | 0.00 | 0.00 | 0.00 | 100 | 1016.1 |
| 20260906102306 | 67 | 87 | 0.9 | 2.6 | 0.00 | 0.00 | 0.00 | 100 | 1016.0 |
| 20260906101803 | 67 | 87 | 0.9 | 2.6 | 0.00 | 0.00 | 0.00 | 100 | 1015.9 |
| 20260906101304 | 67 | 87 | 0.9 | 2.6 | 0.00 | 0.00 | 0.00 | 100 | 1015.9 |
| 20260906100803 | 67 | 87 | 0.0 | 2.6 | 0.00 | 0.00 | 0.00 | 100 | 1015.9 |
| 20260906100303 | 67 | 87 | 0.9 | 2.6 | 0.00 | 0.00 | 0.00 | 100 | 1015.9 |
| 20260906095803 | 67 | 87 | 1.7 | 2.6 | 0.00 | 0.00 | 0.00 | 100 | 1015.9 |
| 20260906095305 | 67 | 87 | 0.0 | 1.7 | 0.00 | 0.00 | 0.00 | 100 | 1015.8 |
| 20260906094803 | 67 | 87 | 1.7 | 2.6 | 0.00 | 0.00 | 0.00 | 100 | 1015.6 |
| 20260906094304 | 67 | 117 | 0.9 | 2.6 | 0.00 | 0.00 | 0.00 | 100 | 1015.6 |
| 20260906093803 | 67 | 117 | 0.9 | 2.6 | 0.00 | 0.00 | 0.00 | 100 | 1015.6 |
| 20260906093303 | 67 | 88 | 0.9 | 2.6 | 0.00 | 0.00 | 0.00 | 100 | 1015.6 |
| 20260906092803 | 67 | 88 | 0.9 | 1.7 | 0.00 | 0.00 | 0.00 | 100 | 1015.5 |
| 20260906092306 | 67 | 56 | 0.9 | 2.6 | 0.00 | 0.00 | 0.00 | 100 | 1015.5 |
| 20260906091303 | 67 | 69 | 1.7 | 4.3 | 0.00 | 0.00 | 0.00 | 100 | 1015.5 |
| 20260906090803 | 67 | 66 | 0.9 | 2.6 | 0.00 | 0.00 | 0.00 | 100 | 1015.4 |
| 20260906090303 | 67 | 106 | 0.9 | 5.2 | 0.00 | 0.00 | 0.00 | 100 | 1015.3 |
| 20260906085803 | 68 | 72 | 0.9 | 2.6 | 0.00 | 0.00 | 0.00 | 100 | 1015.3 |
| 20260906085306 | 68 | 99 | 1.7 | 2.6 | 0.00 | 0.00 | 0.00 | 100 | 1015.2 |
| 20260906084304 | 68 | 85 | 0.9 | 2.6 | 0.00 | 0.00 | 0.00 | 100 | 1015.2 |
| 20260906083803 | 68 | 98 | 1.7 | 2.6 | 0.00 | 0.00 | 0.00 | 100 | 1015.1 |
| 20260906082803 | 68 | 78 | 1.7 | 5.2 | 0.00 | 0.00 | 0.00 | 100 | 1015.2 |
| 20260906082306 | 68 | 71 | 1.7 | 4.3 | 0.00 | 0.00 | 0.00 | 100 | 1015.2 |
| 20260906080803 | 68 | 128 | 0.9 | 2.6 | 0.00 | 0.00 | 0.00 | 100 | 1015.6 |
| 20260906080303 | 68 | 128 | 0.0 | 1.7 | 0.00 | 0.00 | 0.00 | 100 | 1015.6 |
| 20260906075803 | 68 | 128 | 0.9 | 2.6 | 0.00 | 0.00 | 0.00 | 100 | 1015.7 |
| 20260906075306 | 68 | 128 | 0.0 | 0.0 | 0.00 | 0.00 | 0.00 | 100 | 1015.7 |
| 20260906074303 | 68 | 128 | 0.0 | 0.0 | 0.00 | 0.00 | 0.00 | 100 | 1015.7 |
| 20260906073803 | 68 | 128 | 0.0 | 0.9 | 0.00 | 0.00 | 0.00 | 100 | 1015.6 |
| 20260906073303 | 68 | 128 | 0.9 | 1.7 | 0.00 | 0.00 | 0.00 | 100 | 1015.7 |
| 20260906072803 | 68 | 128 | 0.0 | 1.7 | 0.00 | 0.00 | 0.00 | 100 | 1015.6 |
| 20260906072305 | 68 | 128 | 0.0 | 0.0 | 0.00 | 0.00 | 0.00 | 100 | 1015.6 |
| 20260906070803 | 68 | 128 | 0.0 | 0.0 | 0.00 | 0.00 | 0.00 | 100 | 1015.7 |
| 20260906065803 | 68 | 128 | 0.0 | 0.0 | 0.00 | 0.00 | 0.00 | 100 | 1015.8 |
| 20260906065305 | 68 | 128 | 0.0 | 0.0 | 0.00 | 0.00 | 0.00 | 100 | 1015.7 |
| 20260906064803 | 68 | 128 | 0.0 | 0.0 | 0.00 | 0.00 | 0.00 | 100 | 1015.7 |
| 20260906064303 | 68 | 128 | 0.0 | 0.0 | 0.00 | 0.00 | 0.00 | 100 | 1015.7 |
| 20260906063803 | 68 | 128 | 0.0 | 0.0 | 0.00 | 0.00 | 0.00 | 100 | 1015.8 |
| 20260906063304 | 68 | 132 | 0.0 | 0.0 | 0.00 | 0.00 | 0.00 | 100 | 1015.8 |
| 20260906062306 | 68 | 132 | 0.0 | 0.0 | 0.00 | 0.00 | 0.00 | 100 | 1015.8 |
| 20260906061803 | 68 | 132 | 0.0 | 0.0 | 0.00 | 0.00 | 0.00 | 100 | 1015.8 |
| 20260906061303 | 68 | 132 | 0.0 | 0.0 | 0.00 | 0.00 | 0.00 | 100 | 1015.9 |
| 20260906060803 | 68 | 132 | 0.0 | 0.0 | 0.00 | 0.00 | 0.00 | 100 | 1016.0 |
| 20260906060303 | 69 | 132 | 0.0 | 0.0 | 0.00 | 0.00 | 0.00 | 100 | 1016.0 |
| 20260906054803 | 69 | 132 | 0.0 | 0.0 | 0.00 | 0.00 | 0.00 | 100 | 1015.9 |
| 20260906054303 | 69 | 132 | 0.0 | 0.0 | 0.00 | 0.00 | 0.00 | 100 | 1015.9 |
| 20260906053304 | 69 | 132 | 0.0 | 0.0 | 0.00 | 0.00 | 0.00 | 100 | 1016.1 |
| 20260906052804 | 69 | 133 | 0.0 | 0.0 | 0.00 | 0.00 | 0.00 | 100 | 1016.1 |
| 20260906052305 | 69 | 133 | 0.0 | 0.0 | 0.00 | 0.00 | 0.00 | 100 | 1016.1 |
| 20260906051803 | 69 | 133 | 0.0 | 0.0 | 0.00 | 0.00 | 0.00 | 100 | 1016.1 |
| 20260906051303 | 69 | 133 | 0.0 | 0.9 | 0.00 | 0.00 | 0.00 | 100 | 1016.0 |
| 20260906050814 | 69 | 132 | 0.0 | 2.6 | 0.00 | 0.00 | 0.00 | 100 | 1016.0 |
| 20260906050303 | 70 | 133 | 0.0 | 1.7 | 0.00 | 0.00 | 0.00 | 100 | 1016.0 |
| 20260906045804 | 70 | 133 | 0.0 | 2.6 | 0.00 | 0.00 | 0.00 | 100 | 1016.0 |
| 20260906045305 | 70 | 133 | 0.9 | 2.6 | 0.00 | 0.00 | 0.00 | 100 | 1016.1 |
| 20260906044803 | 70 | 133 | 0.9 | 2.6 | 0.00 | 0.00 | 0.00 | 100 | 1016.0 |
| 20260906044304 | 70 | 133 | 0.9 | 2.6 | 0.00 | 0.00 | 0.00 | 100 | 1016.0 |
| 20260906043803 | 70 | 133 | 0.9 | 2.6 | 0.00 | 0.00 | 0.00 | 100 | 1016.0 |
| 20260906043303 | 70 | 133 | 0.9 | 2.6 | 0.00 | 0.00 | 0.00 | 100 | 1016.1 |
| 20260906042803 | 70 | 133 | 0.9 | 1.7 | 0.00 | 0.00 | 0.00 | 100 | 1016.1 |
| 20260906042306 | 70 | 133 | 0.9 | 1.7 | 0.00 | 0.00 | 0.00 | 100 | 1016.1 |
| 20260906041803 | 70 | 133 | 0.0 | 1.7 | 0.00 | 0.00 | 0.00 | 100 | 1016.1 |
| 20260906041303 | 70 | 133 | 0.0 | 1.7 | 0.00 | 0.00 | 0.00 | 100 | 1016.0 |
| 20260906040803 | 71 | 133 | 0.9 | 1.7 | 0.00 | 0.00 | 0.00 | 100 | 1015.9 |
| 20260906040303 | 71 | 133 | 0.0 | 1.7 | 0.00 | 0.00 | 0.00 | 100 | 1016.0 |
| 20260906035803 | 71 | 133 | 0.0 | 0.0 | 0.00 | 0.00 | 0.00 | 100 | 1015.9 |
| 20260906035306 | 71 | 133 | 0.0 | 0.9 | 0.00 | 0.00 | 0.00 | 100 | 1015.8 |
| 20260906034804 | 70 | 133 | 0.0 | 1.7 | 0.00 | 0.00 | 0.00 | 100 | 1015.8 |
| 20260906033304 | 71 | 133 | 0.0 | 0.0 | 0.00 | 0.00 | 0.00 | 100 | 1016.0 |
| 20260906032804 | 71 | 133 | 0.0 | 0.0 | 0.00 | 0.00 | 0.00 | 100 | 1016.0 |
| 20260906032306 | 71 | 133 | 0.0 | 0.0 | 0.00 | 0.00 | 0.00 | 100 | 1016.0 |
| 20260906031303 | 71 | 133 | 0.0 | 0.0 | 0.00 | 0.00 | 0.00 | 100 | 1016.0 |
| 20260906030802 | 71 | 133 | 0.0 | 0.0 | 0.00 | 0.00 | 0.00 | 100 | 1016.0 |
| 20260906030303 | 71 | 133 | 0.0 | 0.0 | 0.00 | 0.00 | 0.00 | 100 | 1016.0 |
| 20260906025803 | 71 | 133 | 0.0 | 0.0 | 0.00 | 0.00 | 0.00 | 100 | 1015.8 |
| 20260906025306 | 71 | 133 | 0.0 | 0.0 | 0.00 | 0.00 | 0.00 | 100 | 1015.7 |
| 20260906024303 | 71 | 133 | 0.0 | 0.0 | 0.00 | 0.00 | 0.00 | 100 | 1015.6 |
| 20260906023803 | 71 | 133 | 0.0 | 0.9 | 0.00 | 0.00 | 0.00 | 100 | 1015.5 |
| 20260906023303 | 71 | 133 | 0.0 | 0.0 | 0.00 | 0.00 | 0.00 | 100 | 1015.5 |
| 20260906022803 | 71 | 133 | 0.0 | 0.0 | 0.00 | 0.00 | 0.00 | 100 | 1015.4 |
| 20260906022306 | 71 | 133 | 0.0 | 0.0 | 0.00 | 0.00 | 0.00 | 100 | 1015.1 |
| 20260906021803 | 71 | 133 | 0.0 | 0.0 | 0.00 | 0.00 | 0.00 | 100 | 1015.1 |
| 20260906021303 | 71 | 133 | 0.0 | 0.0 | 0.00 | 0.00 | 0.00 | 100 | 1015.1 |
| 20260906020303 | 71 | 133 | 0.0 | 0.0 | 0.00 | 0.00 | 0.00 | 100 | 1014.7 |
| 20260906015803 | 71 | 133 | 0.0 | 0.0 | 0.00 | 0.00 | 0.00 | 100 | 1014.7 |
| 20260906015306 | 71 | 133 | 0.0 | 0.0 | 0.00 | 0.00 | 0.00 | 100 | 1014.5 |
| 20260906014803 | 71 | 133 | 0.0 | 0.0 | 0.00 | 0.00 | 0.00 | 100 | 1014.3 |
| 20260906014304 | 71 | 133 | 0.0 | 0.0 | 0.00 | 0.00 | 0.00 | 100 | 1014.3 |
| 20260906013803 | 71 | 133 | 0.0 | 0.0 | 0.00 | 0.00 | 0.00 | 100 | 1014.3 |
| 20260906013303 | 71 | 133 | 0.0 | 0.0 | 0.00 | 0.00 | 0.00 | 100 | 1014.2 |
| 20260906012803 | 71 | 133 | 0.0 | 0.0 | 0.00 | 0.00 | 0.00 | 100 | 1014.3 |
| 20260906012306 | 71 | 133 | 0.0 | 0.0 | 0.00 | 0.00 | 0.00 | 100 | 1014.3 |
| 20260906011803 | 72 | 133 | 0.0 | 0.0 | 0.00 | 0.00 | 0.00 | 100 | 1014.3 |
| 20260906011303 | 72 | 133 | 0.0 | 0.0 | 0.00 | 0.00 | 0.00 | 100 | 1014.2 |
| 20260906010803 | 72 | 133 | 0.0 | 0.9 | 0.00 | 0.00 | 0.00 | 100 | 1014.1 |
| 20260906005803 | 72 | 133 | 0.0 | 0.0 | 0.00 | 0.00 | 0.00 | 100 | 1013.9 |
| 20260906004803 | 72 | 133 | 0.0 | 0.0 | 0.00 | 0.00 | 0.00 | 100 | 1013.8 |
| 20260906004303 | 73 | 133 | 0.0 | 0.0 | 0.00 | 0.00 | 0.00 | 100 | 1013.8 |
| 20260906003803 | 73 | 133 | 0.0 | 0.0 | 0.00 | 0.00 | 0.00 | 100 | 1013.7 |
| 20260906003303 | 73 | 133 | 0.0 | 0.9 | 0.00 | 0.00 | 0.00 | 100 | 1013.7 |
| 20260906002305 | 74 | 133 | 0.0 | 0.0 | 0.00 | 0.00 | 0.00 | 100 | 1013.8 |
| 20260906001803 | 75 | 133 | 0.0 | 1.7 | 0.00 | 0.00 | 0.00 | 100 | 1013.7 |
| 20260906001303 | 75 | 125 | 0.9 | 2.6 | 0.00 | 0.00 | 0.00 | 100 | 1013.7 |
| 20260906000803 | 76 | 93 | 0.9 | 2.6 | 0.00 | 0.00 | 0.00 | 100 | 1013.8 |
| 20260905235803 | 76 | 118 | 1.7 | 4.3 | 0.00 | 0.00 | 0.00 | 90 | 1013.9 |
| 20260905234803 | 76 | 100 | 1.7 | 4.3 | 0.00 | 0.00 | 0.00 | 90 | 1013.9 |
| 20260905233803 | 77 | 123 | 2.6 | 7.8 | 0.00 | 0.00 | 0.00 | 90 | 1013.8 |
| 20260905232803 | 77 | 135 | 3.5 | 7.0 | 0.00 | 0.00 | 0.00 | 90 | 1013.7 |
| 20260905232306 | 77 | 121 | 1.7 | 7.0 | 0.00 | 0.00 | 0.00 | 90 | 1013.6 |
| 20260905231803 | 77 | 118 | 1.7 | 6.1 | 0.00 | 0.00 | 0.00 | 90 | 1013.4 |
| 20260905230803 | 77 | 76 | 3.5 | 8.7 | 0.00 | 0.00 | 0.00 | 90 | 1013.4 |
| 20260905230303 | 77 | 92 | 2.6 | 7.8 | 0.00 | 0.00 | 0.00 | 90 | 1013.3 |
| 20260905225804 | 77 | 75 | 2.6 | 8.7 | 0.00 | 0.00 | 0.00 | 91 | 1013.2 |
| 20260905224303 | 77 | 64 | 1.7 | 5.2 | 0.00 | 0.00 | 0.00 | 91 | 1013.1 |
| 20260905223803 | 77 | 110 | 2.6 | 7.8 | 0.00 | 0.00 | 0.00 | 91 | 1013.1 |
| 20260905223303 | 77 | 67 | 5.2 | 10.4 | 0.00 | 0.00 | 0.00 | 91 | 1013.0 |
| 20260905222803 | 77 | 80 | 7.8 | 10.4 | 0.00 | 0.00 | 0.00 | 91 | 1013.0 |
| 20260905222306 | 77 | 71 | 2.6 | 10.4 | 0.00 | 0.00 | 0.00 | 91 | 1013.0 |
| 20260905221303 | 77 | 78 | 2.6 | 10.4 | 0.00 | 0.00 | 0.00 | 91 | 1012.9 |
| 20260905220803 | 78 | 71 | 5.2 | 13.0 | 0.00 | 0.00 | 0.00 | 91 | 1012.8 |
| 20260905220303 | 78 | 76 | 5.2 | 11.3 | 0.00 | 0.00 | 0.00 | 91 | 1012.7 |
| 20260905215306 | 78 | 95 | 6.1 | 10.4 | 0.00 | 0.00 | 0.00 | 92 | 1012.9 |
| 20260905214304 | 79 | 74 | 5.2 | 11.3 | 0.00 | 0.00 | 0.00 | 92 | 1013.0 |
| 20260905213804 | 79 | 41 | 3.5 | 10.4 | 0.00 | 0.00 | 0.00 | 92 | 1013.1 |
| 20260905213303 | 79 | 71 | 6.1 | 11.3 | 0.00 | 0.00 | 0.00 | 92 | 1013.0 |
| 20260905212803 | 79 | 66 | 4.3 | 7.0 | 0.00 | 0.00 | 0.00 | 92 | 1013.0 |
| 20260905212306 | 79 | 69 | 4.3 | 11.3 | 0.00 | 0.00 | 0.00 | 92 | 1013.0 |
| 20260905211803 | 79 | 78 | 3.5 | 11.3 | 0.00 | 0.00 | 0.00 | 92 | 1013.2 |
| 20260905211303 | 79 | 67 | 6.1 | 10.4 | 0.00 | 0.00 | 0.00 | 92 | 1013.2 |
| 20260905210803 | 79 | 70 | 5.2 | 10.4 | 0.00 | 0.00 | 0.00 | 92 | 1013.2 |
| 20260905210303 | 79 | 80 | 5.2 | 10.4 | 0.00 | 0.00 | 0.00 | 92 | 1013.2 |
| 20260905205803 | 79 | 88 | 6.1 | 10.4 | 0.00 | 0.00 | 0.00 | 93 | 1013.2 |
| 20260905205306 | 79 | 52 | 5.2 | 10.4 | 0.00 | 0.00 | 0.00 | 93 | 1013.3 |
| 20260905204803 | 80 | 59 | 5.2 | 8.7 | 0.00 | 0.00 | 0.00 | 93 | 1013.4 |
| 20260905204303 | 80 | 87 | 4.3 | 8.7 | 0.00 | 0.00 | 0.00 | 93 | 1013.6 |
| 20260905203803 | 80 | 32 | 3.5 | 8.7 | 0.00 | 0.00 | 0.00 | 93 | 1013.5 |
| 20260905202803 | 80 | 86 | 3.5 | 8.7 | 0.00 | 0.00 | 0.00 | 93 | 1013.8 |
| 20260905202306 | 80 | 79 | 4.3 | 8.7 | 0.00 | 0.00 | 0.00 | 93 | 1013.9 |
| 20260905200803 | 80 | 77 | 2.6 | 6.1 | 0.00 | 0.00 | 0.00 | 93 | 1014.1 |
| 20260905195803 | 80 | 122 | 0.0 | 5.2 | 0.00 | 0.00 | 0.00 | 93 | 1014.3 |
| 20260905195306 | 79 | 181 | 0.9 | 2.6 | 0.00 | 0.00 | 0.00 | 93 | 1014.4 |
| 20260905194803 | 80 | 181 | 0.9 | 2.6 | 0.00 | 0.00 | 0.00 | 93 | 1014.4 |
| 20260905194304 | 80 | 161 | 0.0 | 2.6 | 0.00 | 0.00 | 0.00 | 93 | 1014.3 |
| 20260905193803 | 80 | 125 | 0.9 | 5.2 | 0.00 | 0.00 | 0.00 | 93 | 1014.5 |
| 20260905193303 | 80 | 223 | 0.9 | 2.6 | 0.00 | 0.00 | 0.00 | 93 | 1014.4 |
| 20260905192803 | 80 | 223 | 0.9 | 5.2 | 0.00 | 0.00 | 0.00 | 93 | 1014.5 |
| 20260905192306 | 80 | 132 | 0.9 | 5.2 | 0.00 | 0.00 | 0.00 | 93 | 1014.5 |
| 20260905191303 | 81 | 191 | 1.7 | 6.1 | 0.00 | 0.00 | 0.00 | 93 | 1014.4 |
| 20260905185803 | 81 | 151 | 3.5 | 7.0 | 0.00 | 0.00 | 0.00 | 94 | 1014.4 |
| 20260905185305 | 80 | 238 | 1.7 | 7.0 | 0.00 | 0.00 | 0.00 | 94 | 1014.5 |
| 20260905184803 | 81 | 119 | 1.7 | 7.8 | 0.00 | 0.00 | 0.00 | 94 | 1014.5 |
| 20260905183803 | 80 | 163 | 2.6 | 6.1 | 0.00 | 0.00 | 0.00 | 94 | 1014.6 |
| 20260905183303 | 80 | 41 | 2.6 | 7.0 | 0.00 | 0.00 | 0.00 | 94 | 1014.6 |
| 20260905182803 | 80 | 77 | 4.3 | 7.8 | 0.00 | 0.00 | 0.00 | 94 | 1014.6 |
| 20260905182305 | 78 | 61 | 1.7 | 4.3 | 0.00 | 0.00 | 0.00 | 94 | 1014.8 |
| 20260905181803 | 78 | 73 | 1.7 | 6.1 | 0.00 | 0.00 | 0.00 | 94 | 1014.8 |
| 20260905181303 | 78 | 35 | 1.7 | 6.1 | 0.00 | 0.00 | 0.00 | 94 | 1014.9 |
| 20260905180803 | 77 | 110 | 1.7 | 7.0 | 0.00 | 0.00 | 0.00 | 94 | 1015.1 |
| 20260905174803 | 76 | 199 | 0.0 | 2.6 | 0.00 | 0.00 | 0.00 | 100 | 1015.4 |
| 20260905174303 | 76 | 170 | 1.7 | 2.6 | 0.00 | 0.00 | 0.00 | 100 | 1015.5 |
| 20260905173803 | 76 | 138 | 0.0 | 2.6 | 0.00 | 0.00 | 0.00 | 100 | 1015.5 |
| 20260905173303 | 76 | 63 | 1.7 | 4.3 | 0.00 | 0.00 | 0.00 | 100 | 1015.4 |
| 20260905172803 | 76 | 77 | 1.7 | 2.6 | 0.00 | 0.00 | 0.00 | 100 | 1015.4 |
| 20260905172305 | 76 | 75 | 4.3 | 7.0 | 0.00 | 0.00 | 0.00 | 100 | 1015.4 |
| 20260905171803 | 76 | 87 | 2.6 | 6.1 | 0.00 | 0.00 | 0.00 | 100 | 1015.5 |
| 20260905171303 | 76 | 119 | 1.7 | 2.6 | 0.00 | 0.00 | 0.00 | 100 | 1015.6 |
| 20260905170803 | 76 | 167 | 0.9 | 2.6 | 0.00 | 0.00 | 0.00 | 100 | 1015.7 |
| 20260905170303 | 76 | 138 | 0.0 | 2.6 | 0.00 | 0.00 | 0.00 | 100 | 1015.7 |
| 20260905165803 | 75 | 135 | 1.7 | 5.2 | 0.00 | 0.00 | 0.00 | 100 | 1015.7 |
| 20260905165306 | 76 | 190 | 0.9 | 2.6 | 0.00 | 0.00 | 0.00 | 100 | 1015.6 |
| 20260905163803 | 75 | 166 | 0.9 | 2.6 | 0.00 | 0.00 | 0.00 | 100 | 1015.5 |
| 20260905163303 | 75 | 117 | 3.5 | 7.0 | 0.00 | 0.00 | 0.00 | 100 | 1015.4 |
| 20260905162804 | 75 | 91 | 2.6 | 7.8 | 0.00 | 0.00 | 0.00 | 100 | 1015.3 |
| 20260905162305 | 75 | 68 | 2.6 | 7.8 | 0.00 | 0.00 | 0.00 | 100 | 1015.2 |
| 20260905161803 | 75 | 69 | 1.7 | 6.1 | 0.00 | 0.00 | 0.00 | 100 | 1015.2 |
| 20260905161303 | 75 | 58 | 1.7 | 2.6 | 0.00 | 0.00 | 0.00 | 100 | 1015.1 |
| 20260905160803 | 75 | 106 | 2.6 | 5.2 | 0.00 | 0.00 | 0.00 | 100 | 1015.1 |
| 20260905160303 | 75 | 74 | 1.7 | 7.0 | 0.00 | 0.00 | 0.00 | 100 | 1015.0 |
| 20260905155804 | 75 | 137 | 1.7 | 7.0 | 0.00 | 0.00 | 0.00 | 100 | 1015.1 |
| 20260905155306 | 75 | 95 | 2.6 | 5.2 | 0.00 | 0.00 | 0.00 | 100 | 1015.0 |
| 20260905154803 | 75 | 79 | 4.3 | 7.0 | 0.00 | 0.00 | 0.00 | 100 | 1015.0 |
| 20260905154303 | 75 | 92 | 4.3 | 10.4 | 0.00 | 0.00 | 0.00 | 100 | 1015.0 |
| 20260905153803 | 74 | 83 | 4.3 | 10.4 | 0.00 | 0.00 | 0.00 | 100 | 1015.0 |
| 20260905153303 | 75 | 105 | 0.9 | 5.2 | 0.00 | 0.00 | 0.00 | 100 | 1014.9 |
| 20260905152803 | 75 | 72 | 2.6 | 5.2 | 0.00 | 0.00 | 0.00 | 100 | 1015.1 |
| 20260905152306 | 75 | 88 | 2.6 | 7.8 | 0.00 | 0.00 | 0.00 | 100 | 1015.0 |
| 20260905151804 | 74 | 70 | 3.5 | 8.7 | 0.00 | 0.00 | 0.00 | 100 | 1015.0 |
| 20260905151304 | 74 | 93 | 2.6 | 7.0 | 0.00 | 0.00 | 0.00 | 100 | 1015.0 |
| 20260905150803 | 74 | 81 | 2.6 | 7.0 | 0.00 | 0.00 | 0.00 | 100 | 1014.9 |
| 20260905150304 | 74 | 64 | 2.6 | 7.0 | 0.00 | 0.00 | 0.00 | 100 | 1014.9 |
| 20260905145804 | 74 | 51 | 1.7 | 2.6 | 0.00 | 0.00 | 0.00 | 100 | 1014.8 |